Time,TemperatureF,DewpointF,PressureIn,WindDirection,WindDirectionDegrees,WindSpeedMPH,WindSpeedGustMPH,Humidity,HourlyPrecipIn,Conditions,Clouds,dailyrainin,SoftwareType,DateUTC
2013-01-13 00:03:00,15.1,10.4,30.29,NE,45,0.2,0.2,81,0.00,,,0.00,WUHU216HW,2013-01-13 08:03:00,
2013-01-13 00:28:00,14.9,10.5,30.31,ENE,68,0.4,0.4,82,0.00,,,0.00,WUHU216HW,2013-01-13 08:28:00,
2013-01-13 00:33:00,14.9,10.5,30.31,ENE,68,0.4,0.4,82,0.00,,,0.00,WUHU216HW,2013-01-13 08:33:00,
2013-01-13 00:58:00,14.8,10.3,30.31,ENE,68,0.9,0.9,82,0.00,,,0.00,WUHU216HW,2013-01-13 08:58:00,
2013-01-13 01:03:00,14.8,10.3,30.31,ENE,68,0.9,0.9,82,0.00,,,0.00,WUHU216HW,2013-01-13 09:03:00,
2013-01-13 01:28:00,15.3,10.8,30.32,NE,45,0.0,0.0,82,0.00,,,0.00,WUHU216HW,2013-01-13 09:28:00,
2013-01-13 01:33:00,15.3,10.8,30.32,NE,45,0.0,0.0,82,0.00,,,0.00,WUHU216HW,2013-01-13 09:33:00,
2013-01-13 01:58:00,15.3,10.8,30.32,NE,45,0.2,0.2,82,0.00,,,0.00,WUHU216HW,2013-01-13 09:58:00,
2013-01-13 02:03:00,15.5,11.0,30.32,NE,45,0.2,0.2,82,0.00,,,0.00,WUHU216HW,2013-01-13 10:03:00,
2013-01-13 02:08:00,15.5,11.0,30.32,NE,45,0.2,0.2,82,0.00,,,0.00,WUHU216HW,2013-01-13 10:08:00,
2013-01-13 02:28:00,15.7,10.9,30.32,NE,45,0.4,0.4,81,0.00,,,0.00,WUHU216HW,2013-01-13 10:28:00,
2013-01-13 02:33:00,15.7,10.9,30.32,NE,45,0.4,0.4,81,0.00,,,0.00,WUHU216HW,2013-01-13 10:33:00,
2013-01-13 02:58:00,16.0,11.3,30.32,NE,45,0.0,0.0,81,0.00,,,0.00,WUHU216HW,2013-01-13 10:58:00,
2013-01-13 03:03:00,16.0,11.3,30.32,NE,45,0.0,0.0,81,0.00,,,0.00,WUHU216HW,2013-01-13 11:03:00,
2013-01-13 03:08:00,16.0,11.3,30.32,NE,45,0.0,0.0,81,0.00,,,0.00,WUHU216HW,2013-01-13 11:08:00,
2013-01-13 03:28:00,15.7,10.9,30.32,NE,45,0.7,0.7,81,0.00,,,0.00,WUHU216HW,2013-01-13 11:28:00,
2013-01-13 03:33:00,15.7,10.9,30.32,NE,45,0.7,0.7,81,0.00,,,0.00,WUHU216HW,2013-01-13 11:33:00,
2013-01-13 03:58:00,16.0,11.3,30.32,NE,45,0.0,0.0,81,0.00,,,0.00,WUHU216HW,2013-01-13 11:58:00,
2013-01-13 04:03:00,16.0,11.3,30.32,NE,45,0.0,0.0,81,0.00,,,0.00,WUHU216HW,2013-01-13 12:03:00,
2013-01-13 04:08:00,16.0,11.3,30.32,NE,45,0.0,0.0,81,0.00,,,0.00,WUHU216HW,2013-01-13 12:08:00,
2013-01-13 04:28:00,15.5,11.0,30.32,NE,45,0.4,0.4,82,0.00,,,0.00,WUHU216HW,2013-01-13 12:28:00,
2013-01-13 04:33:00,15.5,11.0,30.32,NE,45,0.4,0.4,82,0.00,,,0.00,WUHU216HW,2013-01-13 12:33:00,
2013-01-13 04:58:00,15.7,10.9,30.33,NE,45,0.0,0.0,81,0.00,,,0.00,WUHU216HW,2013-01-13 12:58:00,
2013-01-13 05:03:00,15.8,11.1,30.33,NE,45,0.0,0.0,81,0.00,,,0.00,WUHU216HW,2013-01-13 13:03:00,
2013-01-13 05:08:00,15.8,11.1,30.33,NE,45,0.0,0.0,81,0.00,,,0.00,WUHU216HW,2013-01-13 13:08:00,
2013-01-13 05:28:00,16.2,11.3,30.34,NE,45,0.0,0.0,81,0.00,,,0.00,WUHU216HW,2013-01-13 13:28:00,
2013-01-13 05:33:00,16.2,11.3,30.34,NE,45,0.0,0.0,81,0.00,,,0.00,WUHU216HW,2013-01-13 13:33:00,
2013-01-13 05:58:00,16.2,11.3,30.35,NNE,23,0.0,0.0,81,0.00,,,0.00,WUHU216HW,2013-01-13 13:58:00,
2013-01-13 06:03:00,16.2,11.3,30.35,NNE,23,0.0,0.0,81,0.00,,,0.00,WUHU216HW,2013-01-13 14:03:00,
2013-01-13 06:08:00,16.2,11.3,30.35,NNE,23,0.0,0.0,81,0.00,,,0.00,WUHU216HW,2013-01-13 14:08:00,
2013-01-13 06:28:00,16.4,11.5,30.37,NNE,23,0.2,0.2,81,0.00,,,0.00,WUHU216HW,2013-01-13 14:28:00,
2013-01-13 06:33:00,16.4,11.5,30.37,NNE,23,0.2,0.2,81,0.00,,,0.00,WUHU216HW,2013-01-13 14:33:00,
2013-01-13 06:58:00,16.6,12.0,30.38,NE,45,0.7,0.7,82,0.00,,,0.00,WUHU216HW,2013-01-13 14:58:00,
2013-01-13 07:03:00,16.6,12.0,30.38,NE,45,0.7,0.7,82,0.00,,,0.00,WUHU216HW,2013-01-13 15:03:00,
2013-01-13 07:28:00,16.7,11.9,30.39,NE,45,0.4,0.4,81,0.00,,,0.00,WUHU216HW,2013-01-13 15:28:00,
2013-01-13 07:33:00,16.7,11.9,30.39,NE,45,0.4,0.4,81,0.00,,,0.00,WUHU216HW,2013-01-13 15:33:00,
2013-01-13 07:58:00,17.5,13.1,30.40,NNE,23,0.0,0.0,83,0.00,,,0.00,WUHU216HW,2013-01-13 15:58:00,
2013-01-13 08:03:00,17.5,13.1,30.40,NNE,23,0.0,0.0,83,0.00,,,0.00,WUHU216HW,2013-01-13 16:03:00,
2013-01-13 08:28:00,18.4,14.2,30.40,NE,45,0.4,0.4,84,0.00,,,0.00,WUHU216HW,2013-01-13 16:28:00,
2013-01-13 08:33:00,18.4,14.2,30.40,NE,45,0.4,0.4,84,0.00,,,0.00,WUHU216HW,2013-01-13 16:33:00,
2013-01-13 08:58:00,18.5,14.1,30.40,NE,45,0.7,0.7,83,0.00,,,0.00,WUHU216HW,2013-01-13 16:58:00,
2013-01-13 09:03:00,18.5,14.1,30.40,NE,45,0.7,0.7,83,0.00,,,0.00,WUHU216HW,2013-01-13 17:03:00,
2013-01-13 09:28:00,19.1,14.4,30.39,ENE,68,0.4,0.4,82,0.00,,,0.00,WUHU216HW,2013-01-13 17:28:00,
2013-01-13 09:33:00,19.1,14.4,30.39,ENE,68,0.4,0.4,82,0.00,,,0.00,WUHU216HW,2013-01-13 17:33:00,
2013-01-13 09:58:00,20.2,15.5,30.40,ENE,68,0.0,0.0,82,0.00,,,0.00,WUHU216HW,2013-01-13 17:58:00,
2013-01-13 10:03:00,20.2,15.5,30.40,ENE,68,0.0,0.0,82,0.00,,,0.00,WUHU216HW,2013-01-13 18:03:00,
2013-01-13 10:28:00,21.4,15.9,30.39,NNW,338,0.4,0.4,79,0.00,,,0.00,WUHU216HW,2013-01-13 18:28:00,
2013-01-13 10:33:00,21.4,15.9,30.39,NNW,338,0.4,0.4,79,0.00,,,0.00,WUHU216HW,2013-01-13 18:33:00,
2013-01-13 10:58:00,23.2,17.1,30.39,NNW,338,0.4,0.4,77,0.00,,,0.00,WUHU216HW,2013-01-13 18:58:00,
2013-01-13 11:03:00,23.2,17.1,30.39,NNW,338,0.4,0.4,77,0.00,,,0.00,WUHU216HW,2013-01-13 19:03:00,
2013-01-13 11:28:00,23.8,17.7,30.39,SSW,203,3.1,3.1,77,0.00,,,0.00,WUHU216HW,2013-01-13 19:28:00,
2013-01-13 11:33:00,23.8,17.7,30.39,SSW,203,3.1,3.1,77,0.00,,,0.00,WUHU216HW,2013-01-13 19:33:00,
2013-01-13 11:58:00,24.3,17.5,30.38,NE,45,0.9,0.9,75,0.00,,,0.00,WUHU216HW,2013-01-13 19:58:00,
2013-01-13 12:03:00,24.5,17.6,30.38,ENE,68,0.4,0.9,75,0.00,,,0.00,WUHU216HW,2013-01-13 20:03:00,
2013-01-13 12:08:00,24.5,17.6,30.38,ENE,68,0.4,0.4,75,0.00,,,0.00,WUHU216HW,2013-01-13 20:08:00,
2013-01-13 12:28:00,25.9,18.4,30.38,South,180,2.0,2.0,73,0.00,,,0.00,WUHU216HW,2013-01-13 20:28:00,
2013-01-13 12:33:00,25.9,18.4,30.38,South,180,2.0,2.0,73,0.00,,,0.00,WUHU216HW,2013-01-13 20:33:00,
2013-01-13 12:58:00,26.6,18.8,30.37,SSW,203,2.7,2.7,72,0.00,,,0.00,WUHU216HW,2013-01-13 20:58:00,
2013-01-13 13:03:00,26.6,18.8,30.37,SW,225,3.6,3.6,72,0.00,,,0.00,WUHU216HW,2013-01-13 21:03:00,
2013-01-13 13:08:00,26.6,18.8,30.37,SW,225,3.6,3.6,72,0.00,,,0.00,WUHU216HW,2013-01-13 21:08:00,
2013-01-13 13:28:00,26.8,18.4,30.37,SSW,203,2.9,2.9,70,0.00,,,0.00,WUHU216HW,2013-01-13 21:28:00,
2013-01-13 13:33:00,26.8,18.4,30.37,SSW,203,2.9,2.9,70,0.00,,,0.00,WUHU216HW,2013-01-13 21:33:00,
2013-01-13 13:58:00,26.3,18.5,30.37,NE,45,0.0,0.0,72,0.00,,,0.00,WUHU216HW,2013-01-13 21:58:00,
2013-01-13 14:03:00,26.3,18.5,30.37,NE,45,0.0,0.0,72,0.00,,,0.00,WUHU216HW,2013-01-13 22:03:00,
2013-01-13 14:28:00,26.8,18.4,30.37,SW,225,2.5,2.5,70,0.00,,,0.00,WUHU216HW,2013-01-13 22:28:00,
2013-01-13 14:33:00,26.8,18.4,30.37,SW,225,2.5,2.5,70,0.00,,,0.00,WUHU216HW,2013-01-13 22:33:00,
2013-01-13 14:58:00,27.2,18.0,30.37,SW,225,2.2,2.2,68,0.00,,,0.00,WUHU216HW,2013-01-13 22:58:00,
2013-01-13 15:03:00,27.2,18.0,30.37,SW,225,2.2,2.2,68,0.00,,,0.00,WUHU216HW,2013-01-13 23:03:00,
2013-01-13 15:28:00,26.8,18.4,30.37,South,180,1.1,1.1,70,0.00,,,0.00,WUHU216HW,2013-01-13 23:28:00,
2013-01-13 15:33:00,26.8,18.4,30.37,South,180,1.1,1.1,70,0.00,,,0.00,WUHU216HW,2013-01-13 23:33:00,
2013-01-13 15:58:00,26.1,17.9,30.37,SSW,203,0.0,0.0,71,0.00,,,0.00,WUHU216HW,2013-01-13 23:58:00,
2013-01-13 16:03:00,26.1,17.9,30.37,SSW,203,0.0,0.0,71,0.00,,,0.00,WUHU216HW,2013-01-14 00:03:00,
2013-01-13 16:28:00,25.2,17.7,30.37,SSW,203,0.0,0.0,73,0.00,,,0.00,WUHU216HW,2013-01-14 00:28:00,
2013-01-13 16:33:00,25.2,17.7,30.37,SSW,203,0.0,0.0,73,0.00,,,0.00,WUHU216HW,2013-01-14 00:33:00,
2013-01-13 16:58:00,24.1,17.3,30.37,SE,135,0.0,0.0,75,0.00,,,0.00,WUHU216HW,2013-01-14 00:58:00,
2013-01-13 17:03:00,24.1,17.3,30.37,SE,135,0.0,0.0,75,0.00,,,0.00,WUHU216HW,2013-01-14 01:03:00,
2013-01-13 17:28:00,23.6,18.4,30.37,NE,45,0.0,0.0,80,0.00,,,0.00,WUHU216HW,2013-01-14 01:28:00,
2013-01-13 17:33:00,23.6,18.4,30.37,NE,45,0.0,0.0,80,0.00,,,0.00,WUHU216HW,2013-01-14 01:33:00,
2013-01-13 17:58:00,23.2,17.4,30.37,NE,45,0.0,0.0,78,0.00,,,0.00,WUHU216HW,2013-01-14 01:58:00,
2013-01-13 18:03:00,23.2,17.4,30.37,NE,45,0.0,0.0,78,0.00,,,0.00,WUHU216HW,2013-01-14 02:03:00,
2013-01-13 18:28:00,22.9,17.0,30.38,NNW,338,0.0,0.0,78,0.00,,,0.00,WUHU216HW,2013-01-14 02:28:00,
2013-01-13 18:33:00,22.9,17.0,30.38,NNW,338,0.0,0.0,78,0.00,,,0.00,WUHU216HW,2013-01-14 02:33:00,
2013-01-13 18:58:00,22.3,16.5,30.38,NNE,23,0.0,0.0,78,0.00,,,0.00,WUHU216HW,2013-01-14 02:58:00,
2013-01-13 19:03:00,22.3,16.5,30.38,NNE,23,0.0,0.0,78,0.00,,,0.00,WUHU216HW,2013-01-14 03:03:00,
2013-01-13 19:58:00,21.4,15.9,30.39,NNE,23,0.0,0.0,79,0.00,,,0.00,WUHU216HW,2013-01-14 03:58:00,
2013-01-13 20:03:00,21.4,15.9,30.39,NNE,23,0.0,0.0,79,0.00,,,0.00,WUHU216HW,2013-01-14 04:03:00,
2013-01-13 20:08:00,21.4,15.9,30.39,NNE,23,0.0,0.0,79,0.00,,,0.00,WUHU216HW,2013-01-14 04:08:00,
2013-01-13 20:28:00,21.4,16.2,30.38,NE,45,0.2,0.2,80,0.00,,,0.00,WUHU216HW,2013-01-14 04:28:00,
2013-01-13 20:33:00,21.4,16.2,30.38,NE,45,0.2,0.2,80,0.00,,,0.00,WUHU216HW,2013-01-14 04:33:00,
2013-01-13 20:58:00,21.2,16.0,30.39,NNE,23,0.0,0.0,80,0.00,,,0.00,WUHU216HW,2013-01-14 04:58:00,
2013-01-13 21:00:00,21.2,16.0,30.39,NNE,23,0.0,0.0,80,0.00,,,0.00,WUHU216HW,2013-01-14 05:00:00,
2013-01-13 21:01:00,21.2,16.0,30.39,NNE,23,0.0,0.0,80,0.00,,,0.00,WUHU216HW,2013-01-14 05:01:00,
2013-01-13 21:03:00,21.2,16.0,30.39,NNE,23,0.0,0.0,80,0.00,,,0.00,WUHU216HW,2013-01-14 05:03:00,
2013-01-13 21:28:00,21.6,16.7,30.38,SE,135,0.0,0.0,81,0.00,,,0.00,WUHU216HW,2013-01-14 05:28:00,
2013-01-13 21:33:00,21.6,16.7,30.38,SE,135,0.0,0.0,81,0.00,,,0.00,WUHU216HW,2013-01-14 05:33:00,
2013-01-13 21:58:00,21.2,16.0,30.39,NE,45,0.2,0.2,80,0.00,,,0.00,WUHU216HW,2013-01-14 05:58:00,
2013-01-13 22:03:00,21.2,16.0,30.39,NE,45,0.2,0.2,80,0.00,,,0.00,WUHU216HW,2013-01-14 06:03:00,
2013-01-13 22:08:00,21.2,16.0,30.39,NE,45,0.2,0.2,80,0.00,,,0.00,WUHU216HW,2013-01-14 06:08:00,
2013-01-13 22:28:00,21.4,16.5,30.38,NE,45,0.0,0.0,81,0.00,,,0.00,WUHU216HW,2013-01-14 06:28:00,
2013-01-13 22:33:00,21.4,16.5,30.38,NE,45,0.0,0.0,81,0.00,,,0.00,WUHU216HW,2013-01-14 06:33:00,
2013-01-13 22:38:00,21.4,16.5,30.38,NE,45,0.0,0.0,81,0.00,,,0.00,WUHU216HW,2013-01-14 06:38:00,
2013-01-13 22:58:00,21.6,16.7,30.39,NNE,23,0.0,0.0,81,0.00,,,0.00,WUHU216HW,2013-01-14 06:58:00,
2013-01-13 23:03:00,21.6,16.7,30.39,NNE,23,0.0,0.0,81,0.00,,,0.00,WUHU216HW,2013-01-14 07:03:00,
2013-01-13 23:08:00,21.6,16.7,30.39,NNE,23,0.0,0.0,81,0.00,,,0.00,WUHU216HW,2013-01-14 07:08:00,
2013-01-13 23:28:00,21.6,16.7,30.39,NNE,23,0.0,0.0,81,0.00,,,0.00,WUHU216HW,2013-01-14 07:28:00,
2013-01-13 23:33:00,21.6,16.7,30.39,NNE,23,0.0,0.0,81,0.00,,,0.00,WUHU216HW,2013-01-14 07:33:00,
2013-01-13 23:58:00,22.0,17.0,30.38,SE,135,0.0,0.0,81,0.00,,,0.00,WUHU216HW,2013-01-14 07:58:00,